GW6671 Weather Reports


time (UTC)temp
F
wind
direction
speed
knots
gust
knots
rain 1hr
in
rain 24hr
in
rain mn
in
humidity
%
barometer
mb
20260503060109 52 312 1.7 4.3 0.00 0.00 0.00 58 1015.2
20260503055034 51 295 1.7 6.1 0.00 0.00 0.00 58 1015.1
20260503054550 51 297 1.7 6.1 0.00 0.00 0.00 56 1015.2
20260503054036 51 303 2.6 4.3 0.00 0.00 0.00 60 1015.1
20260503053533 51 291 1.7 3.5 0.00 0.00 0.00 60 1015.1
20260503053044 51 321 2.6 4.3 0.00 0.00 0.00 57 1015.2
20260503052534 51 307 1.7 4.3 0.00 0.00 0.00 59 1015.1
20260503052034 51 313 2.6 4.3 0.00 0.00 0.00 58 1015.1
20260503051540 51 290 1.7 2.6 0.00 0.00 0.00 65 1015.1
20260503051033 52 360 1.7 2.6 0.00 0.00 0.00 59 1015.1
20260503050532 54 360 1.7 4.3 0.00 0.00 0.00 53 1015.1
20260503050040 54 360 1.7 4.3 0.00 0.00 0.00 51 1015.1
20260503045534 54 17 1.7 3.5 0.00 0.00 0.00 52 1015.2
20260503045034 53 323 1.7 3.5 0.00 0.00 0.00 53 1015.1
20260503044545 52 294 0.9 3.5 0.00 0.00 0.00 59 1015.0
20260503044036 52 294 0.9 3.5 0.00 0.00 0.00 61 1014.9
20260503043533 53 294 1.7 3.5 0.00 0.00 0.00 54 1014.9
20260503043050 54 299 2.6 4.3 0.00 0.00 0.00 54 1014.9
20260503042535 55 301 2.6 5.2 0.00 0.00 0.00 51 1014.9
20260503042033 56 297 3.5 5.2 0.00 0.00 0.00 51 1014.9
20260503041543 59 323 0.9 3.5 0.00 0.00 0.00 37 1014.8
20260503041034 61 0 0.0 4.3 0.00 0.00 0.00 37 1014.7
20260503040533 61 17 2.6 4.3 0.00 0.00 0.00 33 1014.6
20260503040054 62 9 3.5 4.3 0.00 0.00 0.00 32 1014.6
20260503035533 62 12 1.7 3.5 0.00 0.00 0.00 33 1014.5
20260503035034 62 320 0.0 1.7 0.00 0.00 0.00 44 1014.5
20260503034544 62 308 0.9 1.7 0.00 0.00 0.00 34 1014.3
20260503034034 62 315 0.0 0.9 0.00 0.00 0.00 33 1014.5
20260503033532 62 0 0.0 0.9 0.00 0.00 0.00 34 1014.3
20260503033038 62 0 0.0 1.7 0.00 0.00 0.00 36 1014.3
20260503032533 61 0 0.0 3.5 0.00 0.00 0.00 40 1014.2
20260503032033 61 0 1.7 3.5 0.00 0.00 0.00 41 1014.2
20260503031545 62 0 0.0 2.6 0.00 0.00 0.00 41 1014.0
20260503031035 63 0 0.9 3.5 0.00 0.00 0.00 34 1014.0
20260503030534 60 263 1.7 3.5 0.00 0.00 0.00 35 1014.0
20260503030037 59 263 1.7 3.5 0.00 0.00 0.00 48 1013.9
20260503025533 58 266 1.7 3.5 0.00 0.00 0.00 53 1013.9
20260503025033 59 0 1.7 4.3 0.00 0.00 0.00 54 1013.9
20260503024544 61 322 1.7 5.2 0.00 0.00 0.00 44 1013.8
20260503024034 63 341 2.6 7.0 0.00 0.00 0.00 35 1013.8
20260503023532 63 331 3.5 7.8 0.00 0.00 0.00 33 1013.7
20260503023052 63 331 5.2 8.7 0.00 0.00 0.00 33 1013.6
20260503022533 63 328 6.1 8.7 0.00 0.00 0.00 33 1013.6
20260503022031 63 301 4.3 7.0 0.00 0.00 0.00 36 1013.7
20260503021550 64 283 2.6 5.2 0.00 0.00 0.00 37 1013.7
20260503021034 66 232 0.9 6.1 0.00 0.00 0.00 32 1013.7
20260503020531 66 232 2.6 6.1 0.00 0.00 0.00 31 1013.7
20260503020047 64 232 2.6 6.1 0.00 0.00 0.00 35 1013.7
20260503015532 65 258 1.7 6.1 0.00 0.00 0.00 36 1013.7
20260503015033 64 234 2.6 6.1 0.00 0.00 0.00 36 1013.6
20260503014544 64 240 1.7 3.5 0.00 0.00 0.00 39 1013.7
20260503014033 63 242 2.6 7.0 0.00 0.00 0.00 40 1013.6
20260503013533 64 247 2.6 7.0 0.00 0.00 0.00 43 1013.7
20260503013037 65 239 2.6 7.8 0.00 0.00 0.00 39 1013.7
20260503012536 66 240 2.6 7.8 0.00 0.00 0.00 33 1013.8
20260503012034 65 250 2.6 4.3 0.00 0.00 0.00 33 1013.7
20260503011546 66 235 2.6 6.1 0.00 0.00 0.00 34 1013.8
20260503011034 67 236 3.5 6.1 0.00 0.00 0.00 30 1013.8
20260503010532 67 233 4.3 7.8 0.00 0.00 0.00 29 1013.8
20260503010044 67 228 3.5 10.4 0.00 0.00 0.00 31 1013.7
20260503005533 68 244 4.3 10.4 0.00 0.00 0.00 30 1013.7
20260503005035 70 227 6.1 10.4 0.00 0.00 0.00 23 1013.6
20260503004610 70 232 7.0 9.6 0.00 0.00 0.00 21 1013.7
20260503004030 70 215 6.1 9.6 0.00 0.00 0.00 25 1013.7
20260503003533 70 233 5.2 13.0 0.00 0.00 0.00 24 1013.6
20260503003056 70 221 6.1 13.0 0.00 0.00 0.00 25 1013.6
20260503002535 71 230 7.8 14.8 0.00 0.00 0.00 21 1013.5
20260503002035 71 228 10.4 14.8 0.00 0.00 0.00 24 1013.6
20260503001601 70 228 9.6 13.0 0.00 0.00 0.00 25 1013.5
20260503001036 71 233 9.6 13.0 0.00 0.00 0.00 25 1013.5
20260503000533 71 231 6.1 14.8 0.00 0.00 0.00 24 1013.5
20260503000040 72 197 8.7 14.8 0.00 0.00 0.00 23 1013.4
20260502235533 71 195 5.2 13.9 0.00 0.00 0.00 28 1013.5
20260502235031 72 197 5.2 13.9 0.00 0.00 0.00 24 1013.5
20260502234544 72 187 1.7 3.5 0.00 0.00 0.00 35 1013.5
20260502234031 72 192 1.7 8.7 0.00 0.00 0.00 31 1013.5
20260502233532 72 190 1.7 8.7 0.00 0.00 0.00 26 1013.6
20260502233044 71 178 5.2 10.4 0.00 0.00 0.00 21 1013.7
20260502232533 71 178 6.1 10.4 0.00 0.00 0.00 27 1013.7
20260502232031 72 180 7.0 9.6 0.00 0.00 0.00 28 1013.7
20260502231540 72 211 7.0 10.4 0.00 0.00 0.00 22 1013.7
20260502231036 73 231 6.1 14.8 0.00 0.00 0.00 22 1013.7
20260502230534 74 194 5.2 14.8 0.00 0.00 0.00 25 1013.7
20260502230039 75 220 7.8 14.8 0.00 0.00 0.00 24 1013.7
20260502225536 75 219 1.7 10.4 0.00 0.00 0.00 22 1013.8
20260502225034 75 222 4.3 10.4 0.00 0.00 0.00 25 1013.8
20260502224543 75 194 3.5 7.8 0.00 0.00 0.00 24 1013.9
20260502224033 74 205 3.5 8.7 0.00 0.00 0.00 29 1013.9
20260502223533 73 194 3.5 8.7 0.00 0.00 0.00 27 1013.9
20260502223047 73 183 4.3 8.7 0.00 0.00 0.00 23 1014.0
20260502222534 74 130 5.2 8.7 0.00 0.00 0.00 30 1014.0
20260502222033 74 249 3.5 7.8 0.00 0.00 0.00 20 1014.0
20260502221543 73 152 3.5 8.7 0.00 0.00 0.00 30 1014.1
20260502221033 73 176 3.5 13.0 0.00 0.00 0.00 27 1014.1
20260502220533 72 155 6.1 13.0 0.00 0.00 0.00 27 1014.1
20260502220046 72 145 7.8 12.2 0.00 0.00 0.00 28 1014.2
20260502215530 72 147 4.3 9.6 0.00 0.00 0.00 30 1014.2
20260502215030 72 118 6.1 12.2 0.00 0.00 0.00 28 1014.3
20260502214547 73 155 7.0 12.2 0.00 0.00 0.00 28 1014.2
20260502214031 74 130 2.6 10.4 0.00 0.00 0.00 26 1014.3
20260502213531 74 117 6.1 10.4 0.00 0.00 0.00 20 1014.3
20260502213101 73 174 5.2 14.8 0.00 0.00 0.00 23 1014.4
20260502212532 73 161 8.7 14.8 0.00 0.00 0.00 34 1014.3
20260502212034 74 117 7.8 14.8 0.00 0.00 0.00 24 1014.3
20260502211544 75 119 7.0 12.2 0.00 0.00 0.00 27 1014.5
20260502211031 75 113 7.8 13.9 0.00 0.00 0.00 26 1014.7
20260502210530 75 148 7.0 13.9 0.00 0.00 0.00 26 1014.5
20260502210043 75 119 3.5 15.6 0.00 0.00 0.00 27 1014.7
20260502205531 74 164 7.8 15.6 0.00 0.00 0.00 25 1014.9
20260502205031 75 122 5.2 10.4 0.00 0.00 0.00 29 1014.9
20260502204546 75 62 4.3 11.3 0.00 0.00 0.00 20 1015.1
20260502204032 74 75 2.6 13.9 0.00 0.00 0.00 23 1015.1
20260502203530 73 148 7.0 13.9 0.00 0.00 0.00 26 1015.2
20260502203045 74 155 3.5 10.4 0.00 0.00 0.00 27 1015.2
20260502202531 73 197 5.2 13.0 0.00 0.00 0.00 18 1015.2
20260502202034 73 184 4.3 13.0 0.00 0.00 0.00 25 1015.2
20260502201541 72 143 9.6 12.2 0.00 0.00 0.00 23 1015.2
20260502201032 73 147 4.3 12.2 0.00 0.00 0.00 23 1015.4
20260502200532 73 111 7.0 12.2 0.00 0.00 0.00 23 1015.4
20260502200107 72 142 7.0 13.9 0.00 0.00 0.00 22 1015.4
20260502195531 72 113 7.8 13.9 0.00 0.00 0.00 25 1015.4
20260502195034 73 126 7.8 13.9 0.00 0.00 0.00 27 1015.5
20260502194549 74 148 5.2 9.6 0.00 0.00 0.00 21 1015.5
20260502194032 73 93 5.2 10.4 0.00 0.00 0.00 23 1015.6
20260502193535 72 132 4.3 10.4 0.00 0.00 0.00 18 1015.7
20260502193037 72 148 0.9 9.6 0.00 0.00 0.00 20 1015.7
20260502192530 71 103 4.3 11.3 0.00 0.00 0.00 21 1015.8
20260502192031 71 157 5.2 11.3 0.00 0.00 0.00 26 1015.8
20260502191549 72 138 3.5 8.7 0.00 0.00 0.00 27 1015.9
20260502191032 72 138 6.1 8.7 0.00 0.00 0.00 27 1015.9
20260502190531 72 109 2.6 9.6 0.00 0.00 0.00 25 1015.9
20260502190046 71 184 4.3 9.6 0.00 0.00 0.00 19 1016.0
20260502185530 71 155 6.1 9.6 0.00 0.00 0.00 27 1016.0
20260502185032 71 138 3.5 6.1 0.00 0.00 0.00 22 1016.1
20260502184540 70 124 3.5 7.0 0.00 0.00 0.00 24 1016.2
20260502184035 70 147 3.5 7.8 0.00 0.00 0.00 34 1016.2
20260502183531 70 169 1.7 7.8 0.00 0.00 0.00 23 1016.2
20260502183045 70 165 4.3 9.6 0.00 0.00 0.00 28 1016.4
20260502182532 70 123 6.1 9.6 0.00 0.00 0.00 26 1016.5
20260502182033 68 154 3.5 9.6 0.00 0.00 0.00 27 1016.4
20260502181545 68 171 3.5 9.6 0.00 0.00 0.00 27 1016.5
20260502181031 68 127 6.1 9.6 0.00 0.00 0.00 29 1016.6
20260502180531 68 121 3.5 7.0 0.00 0.00 0.00 27 1016.5
20260502164034 65 133 2.6 7.0 0.00 0.00 0.00 36 1016.8
20260502163534 65 137 4.3 7.0 0.00 0.00 0.00 32 1016.7
20260502163052 65 123 2.6 6.1 0.00 0.00 0.00 30 1016.7
20260502162534 65 129 2.6 6.1 0.00 0.00 0.00 23 1016.7
20260502162034 64 110 3.5 6.1 0.00 0.00 0.00 23 1016.7
20260502161547 64 121 0.9 3.5 0.00 0.00 0.00 25 1016.7
20260502161033 64 121 0.9 4.3 0.00 0.00 0.00 27 1016.8
20260502160533 63 128 1.7 4.3 0.00 0.00 0.00 28 1016.8
20260502152033 61 218 0.9 2.6 0.00 0.00 0.00 50 1016.5
20260502151543 60 257 0.9 2.6 0.00 0.00 0.00 50 1016.5
20260502151033 59 257 0.9 2.6 0.00 0.00 0.00 50 1016.5
20260502150529 59 0 0.0 1.7 0.00 0.00 0.00 38 1016.5
20260502150114 58 0 0.0 1.7 0.00 0.00 0.00 41 1016.5
20260502130532 38 336 0.0 2.6 0.00 0.00 0.00 67 1016.1
20260502123533 39 355 1.7 4.3 0.00 0.00 0.00 60 1016.0
20260502123038 41 5 2.6 3.5 0.00 0.00 0.00 55 1016.0
20260502122532 42 205 0.0 4.3 0.00 0.00 0.00 53 1016.0
20260502122032 42 0 0.9 4.3 0.00 0.00 0.00 51 1016.0
20260502121537 42 304 2.6 4.3 0.00 0.00 0.00 53 1016.0
20260502121035 42 304 1.7 3.5 0.00 0.00 0.00 52 1015.9
20260502120533 40 304 0.0 3.5 0.00 0.00 0.00 57 1016.0
20260502115533 40 313 2.6 3.5 0.00 0.00 0.00 54 1016.1
20260502115032 40 311 0.9 1.7 0.00 0.00 0.00 59 1016.1
20260502114543 39 311 0.0 4.3 0.00 0.00 0.00 61 1016.2
20260502114033 38 0 1.7 4.3 0.00 0.00 0.00 67 1016.2
20260502113533 39 320 1.7 3.5 0.00 0.00 0.00 62 1016.2
20260502113054 38 314 0.9 3.5 0.00 0.00 0.00 64 1016.2
20260502112532 38 314 1.7 3.5 0.00 0.00 0.00 69 1016.1
20260502112036 39 329 1.7 3.5 0.00 0.00 0.00 65 1016.2
20260502111543 39 336 0.0 3.5 0.00 0.00 0.00 66 1016.2
20260502111034 38 336 1.7 3.5 0.00 0.00 0.00 68 1016.3
20260502110537 39 332 0.9 2.6 0.00 0.00 0.00 64 1016.2
20260502110037 40 332 0.9 3.5 0.00 0.00 0.00 60 1016.3
20260502105533 39 332 0.9 3.5 0.00 0.00 0.00 59 1016.3
20260502105034 39 332 2.6 3.5 0.00 0.00 0.00 61 1016.3
20260502104546 40 345 0.9 1.7 0.00 0.00 0.00 57 1016.3
20260502104032 40 0 0.0 1.7 0.00 0.00 0.00 57 1016.4
20260502103532 39 345 0.9 1.7 0.00 0.00 0.00 62 1016.4
20260502103059 38 0 0.0 1.7 0.00 0.00 0.00 68 1016.4
20260502102533 38 345 0.0 1.7 0.00 0.00 0.00 65 1016.4
20260502102033 38 345 0.9 3.5 0.00 0.00 0.00 68 1016.4
20260502101550 37 345 0.9 3.5 0.00 0.00 0.00 68 1016.3
20260502101034 38 345 1.7 3.5 0.00 0.00 0.00 64 1016.4
20260502100534 38 345 1.7 3.5 0.00 0.00 0.00 69 1016.4
20260502091033 37 0 0.9 2.6 0.00 0.00 0.00 68 1016.5
20260502090532 38 344 0.9 2.6 0.00 0.00 0.00 67 1016.5
20260502071035 40 328 3.5 5.2 0.00 0.00 0.00 62 1017.0
20260502070531 40 333 1.7 3.5 0.00 0.00 0.00 64 1017.1
20260502070040 40 350 1.7 3.5 0.00 0.00 0.00 62 1017.1
20260502065534 40 350 1.7 3.5 0.00 0.00 0.00 70 1017.0
20260502065034 41 329 1.7 3.5 0.00 0.00 0.00 67 1016.9
20260502064546 41 294 1.7 2.6 0.00 0.00 0.00 67 1016.8
20260502064033 41 0 0.0 3.5 0.00 0.00 0.00 70 1016.9
20260502063534 40 287 2.6 4.3 0.00 0.00 0.00 70 1017.0
20260502063054 40 289 1.7 4.3 0.00 0.00 0.00 69 1016.9
20260502062534 40 296 3.5 4.3 0.00 0.00 0.00 66 1016.9
20260502062034 40 296 1.7 2.6 0.00 0.00 0.00 69 1017.1
20260502061539 40 296 0.9 1.7 0.00 0.00 0.00 68 1017.1
20260502061036 40 0 0.0 2.6 0.00 0.00 0.00 67 1016.9
20260502060536 40 0 0.9 2.6 0.00 0.00 0.00 65 1016.9